This demonstration page uses our WeatherBlox Daily Observations layout. Learn more.

40.92945, -100.16068

Hourly Observations for January 16, 2017

Temp ( °F °C ) Dew Point ( °F °C ) Humidity (%) Winds ( mph kmh ) Pressure ( in mb ) Visibility ( mi km ) Precip ( " mm )
12:15 am 00:15 Cloudy with Light Wintry Mix 32 -0.2 30 -1.1 94 94 ESE 3 6 30.15 1021 10 16.0934 0 0
12:35 am 00:35 Cloudy with Mist and Fog 32 -0.2 30 -1.2 93 93 E 3 6 30.15 1021 4 6.43736 0 0
12:55 am 00:55 Cloudy with Light Wintry Mix 31 -0.3 30 -1.1 94 94 Calm 30.15 1021 2.5 4.02335 0 0
1:15 am 01:15 Cloudy with Mist and Fog 31 -0.3 30 -1.1 94 94 Calm 30.15 1021 3 4.82802 0 0
1:35 am 01:35 Cloudy with Mist and Fog 31 -0.3 30 -1 95 95 ENE 3 6 30.15 1021 4 6.43736 0 0
1:55 am 01:55 Cloudy with Mist and Fog 31 -0.3 30 -1 95 95 ENE 3 6 30.15 1021 3 4.82802 0.01 0.254
2:15 am 02:15 Cloudy with Mist and Fog 31 -0.3 30 -1 95 95 NE 3 6 30.12 1020 2.5 4.02335 0 0
2:35 am 02:35 Cloudy with Mist and Fog 32 -0.2 30 -1 94 94 NE 5 7 30.12 1020 2.5 4.02335 0 0
2:55 am 02:55 Cloudy with Mist and Fog 32 -0.1 31 -0.8 95 95 ENE 5 7 30.12 1020 2 3.21868 0 0
3:15 am 03:15 Cloudy with Mist and Fog 32 -0.2 30 -1 94 94 NE 6 9 30.12 1020 2 3.21868 0 0
3:35 am 03:35 Cloudy with Mist and Fog 31 -0.3 30 -1 95 95 NE 7 11 30.12 1020 2.5 4.02335 0 0
3:55 am 03:55 Cloudy with Mist and Fog 31 -0.3 30 -1 95 95 NNE 7 11 30.09 1019 3 4.82802 0 0
4:15 am 04:15 Cloudy 31 -0.3 30 -1 95 95 NNE 8 13 30.09 1019 7 11.26538 0 0
4:35 am 04:35 Cloudy 31 -0.3 30 -1 95 95 NE 7 11 30.09 1019 7 11.26538 0 0
4:55 am 04:55 Cloudy with Mist and Fog 31 -0.3 30 -1 95 95 NNE 8 13 30.09 1019 5 8.0467 0 0
5:15 am 05:15 Cloudy with Mist and Fog 31 -0.3 30 -1 95 95 NNE 8 13 30.06 1018 3 4.82802 0 0
5:35 am 05:35 Cloudy with Mist and Fog 31 -0.3 30 -1 95 95 NNE 8 13 30.06 1018 2 3.21868 0 0
5:55 am 05:55 Cloudy with Mist and Fog 31 -0.3 30 -1 95 95 N 10 17 30.06 1018 2.5 4.02335 0 0
6:15 am 06:15 Cloudy with Light Wintry Mix 32 -0.2 30 -1 94 94 N 9 15 30.06 1018 3 4.82802 0 0
6:35 am 06:35 Cloudy with Light Wintry Mix 32 -0.2 30 -1 94 94 N 9 15 30.06 1018 5 8.0467 0 0
6:55 am 06:55 Cloudy with Light Wintry Mix 32 -0.1 30 -1 94 94 N 8 13 30 1016 4 6.43736 0 0
7:15 am 07:15 Cloudy with Light Wintry Mix 32 0 31 -0.8 94 94 N 8 13 30.06 1018 5 8.0467 0 0
7:35 am 07:35 Cloudy with Light Wintry Mix 32 0 31 -0.6 96 96 N 9 15 30.06 1018 3 4.82802 0 0
7:55 am 07:55 Cloudy with Light Rain 32 0.1 31 -0.5 96 96 NNE 8 13 30.06 1018 4 6.43736 0.01 0.254
8:15 am 08:15 Cloudy with Light Rain 32 0.2 31 -0.5 95 95 NNE 8 13 30 1016 4 6.43736 0.02 0.508
8:35 am 08:35 Cloudy with Rain 32 0.2 31 -0.4 96 96 NNE 7 11 30.03 1017 3 4.82802 0.03 0.762
8:55 am 08:55 Cloudy with Drizzle 33 0.5 32 -0.2 95 95 N 10 17 30.03 1017 2.5 4.02335 0.04 1.016
9:15 am 09:15 Cloudy with Drizzle 33 0.5 32 -0.2 95 95 N 8 13 30.03 1017 3 4.82802 0.01 0.254
9:35 am 09:35 Cloudy with Light Rain 33 0.5 32 -0.1 96 96 N 9 15 30.03 1017 3 4.82802 0.03 0.762
9:55 am 09:55 Cloudy with Light Rain 33 0.5 32 -0.1 96 96 N 8 13 30.03 1017 3 4.82802 0.05 1.27
10:15 am 10:15 Cloudy with Light Rain 33 0.6 32 -0.1 95 95 N 8 13 30.03 1017 2.5 4.02335 0.03 0.762
10:35 am 10:35 Cloudy with Light Snow 33 0.6 32 -0.1 95 95 N 8 13 30.06 1018 2.5 4.02335 0.05 1.27
10:55 am 10:55 Cloudy with Light Rain 33 0.6 32 0 96 96 N 8 13 30.06 1018 3 4.82802 0.08 2.032
11:15 am 11:15 Cloudy with Light Rain 33 0.7 32 0 95 95 N 8 13 30.06 1018 3 4.82802 0.02 0.508
11:35 am 11:35 Cloudy with Light Rain 33 0.7 32 0 95 95 N 7 11 30.06 1018 4 6.43736 0.03 0.762
11:55 am 11:55 Cloudy with Rain 33 0.7 32 0 95 95 N 7 11 30.03 1017 4 6.43736 0.04 1.016
12:15 pm 12:15 Cloudy with Drizzle 33 0.8 32 0 94 94 N 6 9 30.03 1017 3 4.82802 0.01 0.254
12:35 pm 12:35 Cloudy with Drizzle 33 0.8 32 0 94 94 N 9 15 30.03 1017 4 6.43736 0.02 0.508
12:55 pm 12:55 Cloudy with Light Drizzle 33 0.8 32 0 94 94 N 10 17 30.03 1017 5 8.0467 0.02 0.508
1:15 pm 13:15 Cloudy with Light Drizzle 34 1 32 0 93 93 N 14 22 30.03 1017 5 8.0467 0 0
1:35 pm 13:35 Cloudy 34 1 32 0 93 93 N 12 19 30.03 1017 7 11.26538 0 0
1:55 pm 13:55 Cloudy 34 1 32 0 93 93 N 16 26 30.03 1017 10 16.0934 0 0
2:15 pm 14:15 Cloudy 34 1 32 -0.1 92 92 N 15 24 30.03 1017 10 16.0934 0 0
2:35 pm 14:35 Cloudy with Light Rain 33 0.8 31 -0.5 91 91 N 18 30 30.03 1017 5 8.0467 0.01 0.254
2:55 pm 14:55 Cloudy with Light Drizzle 33 0.8 31 -0.5 91 91 N 16 26 30.03 1017 7 11.26538 0.01 0.254
3:15 pm 15:15 Cloudy with Light Rain 34 1 31 -0.5 90 90 N 17 28 30.03 1017 5 8.0467 0 0
3:35 pm 15:35 Cloudy 34 1 31 -0.5 90 90 N 17 28 30.03 1017 7 11.26538 0 0
3:55 pm 15:55 Cloudy 34 1 31 -0.5 90 90 N 15 24 30.06 1018 7 11.26538 0 0
4:15 pm 16:15 Cloudy 34 1.1 31 -0.6 89 89 N 15 24 30.06 1018 10 16.0934 0 0
4:35 pm 16:35 Cloudy 34 1.3 30 -0.9 85 85 N 14 22 30.06 1018 10 16.0934 0 0
4:55 pm 16:55 Cloudy 34 1.2 31 -0.8 87 87 NNW 13 20 30.06 1018 10 16.0934 0 0
5:15 pm 17:15 Cloudy 34 1.1 30 -1 86 86 NNW 12 19 30.06 1018 10 16.0934 0 0
5:35 pm 17:35 Cloudy 34 1.2 30 -1.3 84 84 NNW 13 20 30.06 1018 10 16.0934 0 0
5:55 pm 17:55 Cloudy 34 1.2 30 -1.1 85 85 NNW 9 15 30.09 1019 10 16.0934 0 0
6:15 pm 18:15 Cloudy 34 1 31 -0.8 88 88 NW 7 11 30.09 1019 10 16.0934 0 0
6:35 pm 18:35 Cloudy 34 1.3 31 -0.6 87 87 NW 6 9 30.09 1019 10 16.0934 0 0
6:55 pm 18:55 Cloudy 34 1.3 31 -0.4 89 89 NW 6 9 30.12 1020 10 16.0934 0 0
7:15 pm 19:15 Cloudy 34 1.3 31 -0.3 89 89 WNW 6 9 30.12 1020 10 16.0934 0 0
7:35 pm 19:35 Cloudy 35 1.5 31 -0.5 87 87 NW 7 11 30.12 1020 10 16.0934 0 0
7:55 pm 19:55 Cloudy 35 1.5 30 -1.3 82 82 NW 10 17 30.12 1020 10 16.0934 0 0
8:15 pm 20:15 Cloudy 35 1.5 28 -2 78 78 NNW 10 17 30.12 1020 10 16.0934 0 0
8:35 pm 20:35 Cloudy 34 1.2 27 -2.7 76 76 NNW 9 15 30.12 1020 10 16.0934 0 0
8:55 pm 20:55 Cloudy 34 1 28 -2.5 78 78 NW 7 11 30.12 1020 10 16.0934 0 0
9:15 pm 21:15 Cloudy 34 1 28 -2.3 79 79 NW 8 13 30.12 1020 10 16.0934 0 0
9:35 pm 21:35 Cloudy 34 1 27 -3 75 75 NNW 14 22 30.12 1020 10 16.0934 0 0
9:55 pm 21:55 Mostly Cloudy 33 0.5 26 -3.4 75 75 NNW 13 20 30.15 1021 10 16.0934 0 0
10:15 pm 22:15 Partly Cloudy 32 0 26 -3.5 78 78 NNW 8 13 30.15 1021 10 16.0934 0 0
10:35 pm 22:35 Clear 32 -0.1 24 -4.4 73 73 NNW 13 20 30.15 1021 10 16.0934 0 0
10:55 pm 22:55 Clear 31 -0.7 24 -4.6 75 75 NW 10 17 30.15 1021 10 16.0934 0 0
11:15 pm 23:15 Clear 30 -1 23 -4.8 76 76 NW 10 17 30.15 1021 10 16.0934 0 0
11:35 pm 23:35 Clear 29 -1.5 23 -5 77 77 NW 9 15 30.15 1021 10 16.0934 0 0
11:55 pm 23:55 Clear 29 -1.7 23 -5.1 78 78 NW 9 15 30.15 1021 10 16.0934 0 0

Powered by AerisWeather